Time,TemperatureF,DewpointF,PressureIn,WindDirection,WindDirectionDegrees,WindSpeedMPH,WindSpeedGustMPH,Humidity,HourlyPrecipIn,Conditions,Clouds,dailyrainin,SolarRadiationWatts/m^2,SoftwareType,DateUTC
2013-07-17 00:22:00,67.0,59.0,-100.00,SE,136,2.0,11.0,75,0.00,,,-99.99,0.000000,,2013-07-17 06:22:00,
2013-07-17 00:32:00,67.0,59.0,-100.00,SE,136,2.0,11.0,75,0.00,,,-99.99,0.000000,,2013-07-17 06:32:00,
2013-07-17 00:43:00,67.0,59.0,-100.00,SE,136,2.0,11.0,75,0.00,,,-99.99,0.000000,,2013-07-17 06:43:00,
2013-07-17 00:52:00,67.0,59.0,-100.00,SE,136,2.0,11.0,75,0.00,,,-99.99,0.000000,,2013-07-17 06:52:00,
2013-07-17 01:22:00,67.0,57.0,-100.00,East,92,6.0,10.0,71,0.00,,,-99.99,0.000000,,2013-07-17 07:22:00,
2013-07-17 01:32:00,67.0,57.0,-100.00,East,92,6.0,10.0,71,0.00,,,-99.99,0.000000,,2013-07-17 07:32:00,
2013-07-17 01:42:00,67.0,57.0,-100.00,East,92,6.0,10.0,71,0.00,,,-99.99,0.000000,,2013-07-17 07:42:00,
2013-07-17 01:52:00,67.0,57.0,-100.00,East,92,6.0,10.0,71,0.00,,,-99.99,0.000000,,2013-07-17 07:52:00,
2013-07-17 02:22:00,67.0,57.0,-100.00,East,89,5.0,12.0,70,0.00,,,-99.99,0.000000,,2013-07-17 08:22:00,
2013-07-17 02:32:00,67.0,57.0,-100.00,East,89,5.0,12.0,70,0.00,,,-99.99,0.000000,,2013-07-17 08:32:00,
2013-07-17 02:43:00,67.0,57.0,-100.00,East,89,5.0,12.0,70,0.00,,,-99.99,0.000000,,2013-07-17 08:43:00,
2013-07-17 02:53:00,67.0,57.0,-100.00,East,89,5.0,12.0,70,0.00,,,-99.99,0.000000,,2013-07-17 08:53:00,
2013-07-17 03:22:00,66.0,55.0,-100.00,East,79,6.0,10.0,68,0.00,,,-99.99,0.000000,,2013-07-17 09:22:00,
2013-07-17 03:32:00,66.0,55.0,-100.00,East,79,6.0,10.0,68,0.00,,,-99.99,0.000000,,2013-07-17 09:32:00,
2013-07-17 03:43:00,66.0,55.0,-100.00,East,79,6.0,10.0,68,0.00,,,-99.99,0.000000,,2013-07-17 09:43:00,
2013-07-17 03:52:00,66.0,55.0,-100.00,East,79,6.0,10.0,68,0.00,,,-99.99,0.000000,,2013-07-17 09:52:00,
2013-07-17 04:22:00,67.0,57.0,-100.00,ESE,118,2.0,8.0,71,0.00,,,-99.99,0.000000,,2013-07-17 10:22:00,
2013-07-17 04:32:00,67.0,57.0,-100.00,ESE,118,2.0,8.0,71,0.00,,,-99.99,0.000000,,2013-07-17 10:32:00,
2013-07-17 04:43:00,67.0,57.0,-100.00,ESE,118,2.0,8.0,71,0.00,,,-99.99,0.000000,,2013-07-17 10:43:00,
2013-07-17 04:52:00,67.0,57.0,-100.00,ESE,118,2.0,8.0,71,0.00,,,-99.99,0.000000,,2013-07-17 10:52:00,
2013-07-17 05:22:00,64.0,58.0,-100.00,West,259,0.0,2.0,82,0.00,,,-99.99,0.000000,,2013-07-17 11:22:00,
2013-07-17 05:32:00,64.0,58.0,-100.00,West,259,0.0,2.0,82,0.00,,,-99.99,0.000000,,2013-07-17 11:32:00,
2013-07-17 05:42:00,64.0,58.0,-100.00,West,259,0.0,2.0,82,0.00,,,-99.99,0.000000,,2013-07-17 11:42:00,
2013-07-17 05:52:00,64.0,58.0,-100.00,West,259,0.0,2.0,82,0.00,,,-99.99,0.000000,,2013-07-17 11:52:00,
2013-07-17 06:22:00,64.0,56.0,-100.00,ESE,104,2.0,4.0,76,0.00,,,-99.99,0.000000,,2013-07-17 12:22:00,
2013-07-17 06:32:00,64.0,56.0,-100.00,ESE,104,2.0,4.0,76,0.00,,,-99.99,0.000000,,2013-07-17 12:32:00,
2013-07-17 06:42:00,64.0,56.0,-100.00,ESE,104,2.0,4.0,76,0.00,,,-99.99,0.000000,,2013-07-17 12:42:00,
2013-07-17 06:53:00,64.0,56.0,-100.00,ESE,104,2.0,4.0,76,0.00,,,-99.99,0.000000,,2013-07-17 12:53:00,
2013-07-17 07:32:00,66.0,57.0,-100.00,SE,131,3.0,6.0,74,0.00,,,-99.99,46.000000,,2013-07-17 13:32:00,
2013-07-17 07:43:00,66.0,57.0,-100.00,SE,131,3.0,6.0,74,0.00,,,-99.99,46.000000,,2013-07-17 13:43:00,
2013-07-17 07:52:00,66.0,57.0,-100.00,SE,131,3.0,6.0,74,0.00,,,-99.99,46.000000,,2013-07-17 13:52:00,
2013-07-17 08:22:00,69.0,56.0,-100.00,SE,127,4.0,8.0,64,0.00,,,-99.99,178.000000,,2013-07-17 14:22:00,
2013-07-17 08:32:00,69.0,56.0,-100.00,SE,127,4.0,8.0,64,0.00,,,-99.99,178.000000,,2013-07-17 14:32:00,
2013-07-17 08:43:00,69.0,56.0,-100.00,SE,127,4.0,8.0,64,0.00,,,-99.99,178.000000,,2013-07-17 14:43:00,
2013-07-17 08:52:00,69.0,56.0,-100.00,SE,127,4.0,8.0,64,0.00,,,-99.99,178.000000,,2013-07-17 14:52:00,
2013-07-17 09:22:00,79.0,58.0,-100.00,SSE,149,1.0,6.0,48,0.00,,,-99.99,489.000000,,2013-07-17 15:22:00,
2013-07-17 09:52:00,79.0,58.0,-100.00,SSE,149,1.0,6.0,48,0.00,,,-99.99,489.000000,,2013-07-17 15:52:00,
2013-07-17 11:22:00,84.0,55.0,-100.00,North,6,3.0,10.0,37,0.00,,,-99.99,929.000000,,2013-07-17 17:22:00,
2013-07-17 11:32:00,84.0,55.0,-100.00,North,6,3.0,10.0,37,0.00,,,-99.99,929.000000,,2013-07-17 17:32:00,
2013-07-17 11:43:00,84.0,55.0,-100.00,North,6,3.0,10.0,37,0.00,,,-99.99,929.000000,,2013-07-17 17:43:00,
2013-07-17 11:52:00,84.0,55.0,-100.00,North,6,3.0,10.0,37,0.00,,,-99.99,929.000000,,2013-07-17 17:52:00,
2013-07-17 12:22:00,84.0,51.0,-100.00,WSW,247,5.0,10.0,32,0.00,,,0.12,937.000000,,2013-07-17 18:22:00,
2013-07-17 12:32:00,84.0,51.0,-100.00,WSW,247,5.0,10.0,32,0.00,,,0.12,937.000000,,2013-07-17 18:32:00,
2013-07-17 12:43:00,84.0,51.0,-100.00,WSW,247,5.0,10.0,32,0.00,,,0.12,937.000000,,2013-07-17 18:43:00,
2013-07-17 12:52:00,84.0,51.0,-100.00,WSW,247,5.0,10.0,32,0.00,,,0.12,937.000000,,2013-07-17 18:52:00,
2013-07-17 13:22:00,88.0,51.0,-100.00,WNW,292,5.0,16.0,28,0.00,,,0.12,1297.000000,,2013-07-17 19:22:00,
2013-07-17 13:32:00,88.0,51.0,-100.00,WNW,292,5.0,16.0,28,0.00,,,0.12,1297.000000,,2013-07-17 19:32:00,
2013-07-17 13:43:00,88.0,51.0,-100.00,WNW,292,5.0,16.0,28,0.00,,,0.12,1297.000000,,2013-07-17 19:43:00,
2013-07-17 13:53:00,88.0,51.0,-100.00,WNW,292,5.0,16.0,28,0.00,,,0.12,1297.000000,,2013-07-17 19:53:00,
2013-07-17 14:22:00,88.0,50.0,-100.00,North,352,4.0,13.0,27,0.00,,,0.12,1138.000000,,2013-07-17 20:22:00,
2013-07-17 14:33:00,88.0,50.0,-100.00,North,352,4.0,13.0,27,0.00,,,0.12,1138.000000,,2013-07-17 20:33:00,
2013-07-17 14:43:00,88.0,50.0,-100.00,North,352,4.0,13.0,27,0.00,,,0.12,1138.000000,,2013-07-17 20:43:00,
2013-07-17 14:52:00,88.0,50.0,-100.00,North,352,4.0,13.0,27,0.00,,,0.12,1138.000000,,2013-07-17 20:52:00,
2013-07-17 16:32:00,93.0,48.0,-100.00,West,271,5.0,14.0,22,0.00,,,0.12,1136.000000,,2013-07-17 22:32:00,
2013-07-17 16:43:00,93.0,48.0,-100.00,West,271,5.0,14.0,22,0.00,,,0.12,1136.000000,,2013-07-17 22:43:00,
2013-07-17 16:53:00,93.0,48.0,-100.00,West,271,5.0,14.0,22,0.00,,,0.12,1136.000000,,2013-07-17 22:53:00,
2013-07-17 17:22:00,88.0,47.0,-100.00,NW,313,7.0,14.0,24,0.00,,,0.12,522.000000,,2013-07-17 23:22:00,
2013-07-17 17:32:00,88.0,47.0,-100.00,NW,313,7.0,14.0,24,0.00,,,0.12,522.000000,,2013-07-17 23:32:00,
2013-07-17 17:43:00,88.0,47.0,-100.00,NW,313,7.0,14.0,24,0.00,,,0.12,522.000000,,2013-07-17 23:43:00,
2013-07-17 17:52:00,88.0,47.0,-100.00,NW,313,7.0,14.0,24,0.00,,,0.12,522.000000,,2013-07-17 23:52:00,
2013-07-17 18:22:00,86.0,46.0,-100.00,SW,221,5.0,25.0,25,0.00,,,0.12,233.000000,,2013-07-18 00:22:00,
2013-07-17 18:33:00,86.0,46.0,-100.00,SW,221,5.0,25.0,25,0.00,,,0.12,233.000000,,2013-07-18 00:33:00,
2013-07-17 18:43:00,86.0,46.0,-100.00,SW,221,5.0,25.0,25,0.00,,,0.12,233.000000,,2013-07-18 00:43:00,
2013-07-17 18:52:00,86.0,46.0,-100.00,SW,221,5.0,25.0,25,0.00,,,0.12,233.000000,,2013-07-18 00:52:00,
2013-07-17 19:32:00,79.0,54.0,-100.00,SW,231,9.0,23.0,42,0.00,,,0.12,60.000000,,2013-07-18 01:32:00,
2013-07-17 19:42:00,79.0,54.0,-100.00,SW,231,9.0,23.0,42,0.00,,,0.12,60.000000,,2013-07-18 01:42:00,
2013-07-17 19:53:00,79.0,54.0,-100.00,SW,231,9.0,23.0,42,0.00,,,0.12,60.000000,,2013-07-18 01:53:00,
2013-07-17 20:22:00,78.0,51.0,-100.00,North,359,1.0,8.0,39,0.00,,,0.12,17.000000,,2013-07-18 02:22:00,
2013-07-17 20:32:00,78.0,51.0,-100.00,North,359,1.0,8.0,39,0.00,,,0.12,17.000000,,2013-07-18 02:32:00,
2013-07-17 20:43:00,78.0,51.0,-100.00,North,359,1.0,8.0,39,0.00,,,0.12,17.000000,,2013-07-18 02:43:00,
2013-07-17 20:52:00,78.0,51.0,-100.00,North,359,1.0,8.0,39,0.00,,,0.12,17.000000,,2013-07-18 02:52:00,
2013-07-17 21:22:00,76.0,55.0,-100.00,SE,128,5.0,11.0,48,0.00,,,0.00,1.000000,,2013-07-18 03:22:00,
2013-07-17 21:32:00,76.0,55.0,-100.00,SE,128,5.0,11.0,48,0.00,,,0.00,1.000000,,2013-07-18 03:32:00,
2013-07-17 21:43:00,76.0,55.0,-100.00,SE,128,5.0,11.0,48,0.00,,,0.00,1.000000,,2013-07-18 03:43:00,
2013-07-17 21:52:00,76.0,55.0,-100.00,SE,128,5.0,11.0,48,0.00,,,0.00,1.000000,,2013-07-18 03:52:00,
2013-07-17 22:22:00,75.0,55.0,-100.00,West,269,5.0,12.0,50,0.00,,,0.00,0.000000,,2013-07-18 04:22:00,
2013-07-17 22:32:00,75.0,55.0,-100.00,West,269,5.0,12.0,50,0.00,,,0.00,0.000000,,2013-07-18 04:32:00,
2013-07-17 22:43:00,75.0,55.0,-100.00,West,269,5.0,12.0,50,0.00,,,0.00,0.000000,,2013-07-18 04:43:00,
2013-07-17 22:52:00,75.0,55.0,-100.00,West,269,5.0,12.0,50,0.00,,,0.00,0.000000,,2013-07-18 04:52:00,
2013-07-17 23:22:00,71.0,56.0,-100.00,WSW,238,3.0,10.0,59,0.00,,,0.00,0.000000,,2013-07-18 05:22:00,
2013-07-17 23:32:00,71.0,56.0,-100.00,WSW,238,3.0,10.0,59,0.00,,,0.00,0.000000,,2013-07-18 05:32:00,
2013-07-17 23:42:00,71.0,56.0,-100.00,WSW,238,3.0,10.0,59,0.00,,,0.00,0.000000,,2013-07-18 05:42:00,
2013-07-17 23:52:00,71.0,56.0,-100.00,WSW,238,3.0,10.0,59,0.00,,,0.00,0.000000,,2013-07-18 05:52:00,